Overview Statistics Trail Chart Weather Telemetry Raw packets
 

This is the latest recevied weather packets stored in our database for station/object N9DMT-13. If no packets are shown the sender has not sent any weather packets the latest 10 day(s).

<< 41 42 43 44 45 46 47 >>
Time Temp. Humidity Pressure Rain* Wind** Luminosity Snow
1777615870 0° C 84% 984.6 hPa 0 mm - - -
1777615569 0.56° C 83% 984.5 hPa 0 mm - - -
1777615269 0.56° C 82% 984.4 hPa 0 mm - - -
1777614968 0.56° C 82% 984.4 hPa 0 mm - - -
1777614667 0.56° C 82% 984.4 hPa 0 mm - - -
1777614367 1.11° C 82% 984.5 hPa 0 mm - - -
1777614066 1.11° C 82% 984.5 hPa 0 mm - - -
1777613765 1.11° C 81% 984.5 hPa 0 mm - - -
1777613464 1.11° C 80% 984.5 hPa 0 mm - - -
1777613164 1.67° C 79% 984.3 hPa 0 mm - - -
1777612863 1.67° C 78% 984.3 hPa 0 mm - - -
1777612563 2.22° C 78% 984.2 hPa 0 mm - - -
1777612262 2.22° C 77% 984.3 hPa 0 mm - - -
1777611961 2.22° C 76% 984.2 hPa 0 mm - - -
1777611660 2.22° C 76% 984.2 hPa 0 mm - - -
1777611360 2.22° C 75% 984.1 hPa 0 mm - - -
1777611059 2.78° C 73% 984.1 hPa 0 mm - - -
1777610758 2.78° C 74% 984.3 hPa 0 mm - - -
1777610457 3.33° C 70% 984.3 hPa 0 mm - - -
1777610157 3.33° C 70% 984.3 hPa 0 mm - - -
1777609856 3.89° C 68% 984.4 hPa 0 mm - - -
1777609555 3.89° C 67% 984.4 hPa 0 mm - - -
1777609254 4.44° C 67% 984.3 hPa 0 mm - - -
1777608953 5° C 62% 984.4 hPa 0 mm - - -
1777608653 5° C 59% 984.2 hPa 0 mm - - -

* Rain latest hour (hover to see other rain measurements)
** Current wind speed in m/s (hover to see current wind gust speed)